RYR7878 EPPO-LGKR

Flight info

Callsign RYR7878
Flight time 2h 5m
Altitude 35000
Route XIDNA1B XIDNA DCT MISKA L616 DESEN DCT VALPI DCT OSDUK DCT RODON/N0394F190 N732 PITAS PITAS2C
Aircraft B738/M-SDE2E3FGHIRWXY/LB1

Departure

Time 2026-04-25 16:12
Airport Poznań-Ławica Airport (EPPO)

Arrival

Time 2026-04-25 18:17
Airport Corfu Ioannis Kapodistrias International Airport (LGKR)
Time Latitude Longitude Altitude Speed Heading
2026-04-25 15:43 52.41594 16.82914 302 ft 0 kts 192°
2026-04-25 15:48 52.41593 16.82914 302 ft 0 kts 192°
2026-04-25 16:02 52.41598 16.82915 302 ft 4 kts 194°
2026-04-25 16:03 52.41623 16.82921 302 ft 4 kts 181°
2026-04-25 16:03 52.41650 16.82919 302 ft 4 kts 171°
2026-04-25 16:03 52.41663 16.82915 302 ft 1 kts 169°
2026-04-25 16:06 52.41661 16.82921 303 ft 3 kts 137°
2026-04-25 16:07 52.41647 16.82990 302 ft 12 kts 104°
2026-04-25 16:07 52.41614 16.83077 304 ft 16 kts 142°
2026-04-25 16:07 52.41597 16.83339 302 ft 15 kts 99°
2026-04-25 16:07 52.41579 16.83512 299 ft 15 kts 98°
2026-04-25 16:08 52.41570 16.83667 299 ft 13 kts 93°
2026-04-25 16:08 52.41565 16.83803 297 ft 11 kts 91°
2026-04-25 16:08 52.41589 16.83907 297 ft 9 kts 51°
2026-04-25 16:08 52.41628 16.83968 299 ft 7 kts 27°
2026-04-25 16:09 52.41667 16.83997 298 ft 6 kts 22°
2026-04-25 16:09 52.41705 16.84021 297 ft 6 kts 21°
2026-04-25 16:09 52.41747 16.84047 299 ft 7 kts 21°
2026-04-25 16:09 52.41794 16.84063 299 ft 7 kts 360°
2026-04-25 16:10 52.41834 16.84021 298 ft 7 kts 298°
2026-04-25 16:10 52.41838 16.84001 299 ft 0 kts 287°
2026-04-25 16:12 52.41893 16.83709 302 ft 71 kts 287°
2026-04-25 16:12 52.42132 16.82480 307 ft 153 kts 287°
2026-04-25 16:12 52.42497 16.80546 683 ft 198 kts 287°
2026-04-25 16:12 52.42633 16.79837 915 ft 205 kts 288°
2026-04-25 16:13 52.43455 16.75506 1673 ft 266 kts 285°
2026-04-25 16:13 52.43940 16.72542 2373 ft 258 kts 285°
2026-04-25 16:13 52.44403 16.69905 2846 ft 232 kts 289°
2026-04-25 16:13 52.44931 16.67321 2985 ft 248 kts 282°
2026-04-25 16:14 52.44749 16.64505 3564 ft 255 kts 243°
2026-04-25 16:14 52.43544 16.62411 4301 ft 257 kts 208°
2026-04-25 16:14 52.41856 16.61438 5046 ft 260 kts 191°
2026-04-25 16:14 52.40055 16.61015 5763 ft 263 kts 186°
2026-04-25 16:15 52.38232 16.61191 6434 ft 267 kts 160°
2026-04-25 16:15 52.36697 16.62862 7158 ft 268 kts 131°
2026-04-25 16:15 52.35748 16.65479 7855 ft 271 kts 110°
2026-04-25 16:15 52.35169 16.68426 8536 ft 274 kts 107°
2026-04-25 16:16 52.34544 16.71388 9190 ft 278 kts 118°
2026-04-25 16:16 52.33212 16.73652 9834 ft 280 kts 151°
2026-04-25 16:16 52.31349 16.74518 10440 ft 286 kts 179°
2026-04-25 16:16 52.29328 16.73948 10631 ft 306 kts 197°
2026-04-25 16:17 52.27233 16.72852 10802 ft 327 kts 198°
2026-04-25 16:17 52.25010 16.71654 10963 ft 346 kts 198°
2026-04-25 16:17 52.22707 16.70434 11311 ft 357 kts 198°
2026-04-25 16:17 52.20291 16.69184 11897 ft 361 kts 197°
2026-04-25 16:18 52.17915 16.67969 12531 ft 363 kts 197°
2026-04-25 16:18 52.17093 16.67592 12740 ft 364 kts 193°
2026-04-25 16:18 52.12890 16.67734 13759 ft 370 kts 163°
2026-04-25 16:18 52.10504 16.69317 14397 ft 372 kts 155°
2026-04-25 16:19 52.08153 16.71129 15001 ft 376 kts 154°
2026-04-25 16:19 52.05782 16.72972 15608 ft 380 kts 154°
2026-04-25 16:19 52.03382 16.74826 16219 ft 383 kts 154°
2026-04-25 16:20 51.98521 16.78526 17382 ft 389 kts 155°
2026-04-25 16:20 51.96052 16.80386 17941 ft 392 kts 155°
2026-04-25 16:20 51.91052 16.84133 19018 ft 399 kts 155°
2026-04-25 16:21 51.88518 16.86026 19537 ft 402 kts 155°
2026-04-25 16:21 51.85972 16.87927 20035 ft 405 kts 155°
2026-04-25 16:21 51.83399 16.89845 20531 ft 408 kts 155°
2026-04-25 16:21 51.80815 16.91770 21012 ft 411 kts 155°
2026-04-25 16:22 51.78240 16.93686 21473 ft 414 kts 155°
2026-04-25 16:22 51.75614 16.95637 21924 ft 416 kts 155°
2026-04-25 16:22 51.72954 16.97577 22358 ft 419 kts 158°
2026-04-25 16:22 51.70155 16.98945 22768 ft 422 kts 169°
2026-04-25 16:23 51.67228 16.99486 23192 ft 424 kts 179°
2026-04-25 16:23 51.64271 16.99260 23598 ft 427 kts 185°
2026-04-25 16:23 51.61305 16.98840 23980 ft 429 kts 185°
2026-04-25 16:23 51.58352 16.98413 24345 ft 432 kts 185°
2026-04-25 16:24 51.55348 16.97993 24713 ft 434 kts 185°
2026-04-25 16:24 51.52329 16.97591 25074 ft 436 kts 185°
2026-04-25 16:24 51.49292 16.97201 25421 ft 439 kts 184°
2026-04-25 16:24 51.46236 16.96817 25758 ft 441 kts 184°
2026-04-25 16:25 51.43172 16.96436 26083 ft 443 kts 184°
2026-04-25 16:25 51.42168 16.96312 26195 ft 444 kts 184°
2026-04-25 16:25 51.36986 16.95671 26705 ft 447 kts 184°
2026-04-25 16:25 51.33871 16.95286 26998 ft 450 kts 184°
2026-04-25 16:26 51.30746 16.94899 27275 ft 452 kts 184°
2026-04-25 16:26 51.27643 16.94516 27547 ft 454 kts 184°
2026-04-25 16:26 51.24487 16.94126 27838 ft 455 kts 184°
2026-04-25 16:26 51.21320 16.93831 28112 ft 457 kts 179°
2026-04-25 16:27 51.18149 16.94289 28358 ft 459 kts 169°
2026-04-25 16:27 51.15057 16.95532 28659 ft 459 kts 160°
2026-04-25 16:27 51.12098 16.97430 29035 ft 457 kts 157°
2026-04-25 16:27 51.09172 16.99401 29417 ft 456 kts 157°
2026-04-25 16:28 51.06250 17.01362 29731 ft 456 kts 157°
2026-04-25 16:28 51.03325 17.03298 30033 ft 456 kts 158°
2026-04-25 16:28 51.00398 17.05209 30355 ft 455 kts 158°
2026-04-25 16:28 50.97473 17.07102 30691 ft 454 kts 158°
2026-04-25 16:29 50.94545 17.08987 31003 ft 453 kts 158°
2026-04-25 16:29 50.91621 17.10868 31291 ft 453 kts 158°
2026-04-25 16:29 50.88700 17.12745 31586 ft 452 kts 158°
2026-04-25 16:29 50.85787 17.14616 31890 ft 451 kts 158°
2026-04-25 16:30 50.82878 17.16480 32176 ft 451 kts 158°
2026-04-25 16:30 50.79974 17.18332 32449 ft 450 kts 158°
2026-04-25 16:30 50.77068 17.20178 32715 ft 450 kts 158°
2026-04-25 16:30 50.74205 17.21995 32981 ft 449 kts 158°
2026-04-25 16:31 50.71305 17.23834 33246 ft 449 kts 158°
2026-04-25 16:31 50.68412 17.25666 33499 ft 448 kts 158°
2026-04-25 16:31 50.65513 17.27500 33746 ft 448 kts 158°
2026-04-25 16:31 50.62626 17.29325 34001 ft 447 kts 158°
2026-04-25 16:32 50.59734 17.31151 34238 ft 447 kts 158°
2026-04-25 16:32 50.56845 17.32973 34442 ft 447 kts 158°
2026-04-25 16:32 50.54928 17.34180 34604 ft 447 kts 158°
2026-04-25 16:32 50.52041 17.35997 34855 ft 446 kts 158°
2026-04-25 16:33 50.49160 17.37808 35013 ft 447 kts 158°
2026-04-25 16:33 50.43355 17.41449 35001 ft 448 kts 158°
2026-04-25 16:34 50.37582 17.45061 35000 ft 445 kts 158°
2026-04-25 16:34 50.31843 17.48664 34997 ft 443 kts 158°
2026-04-25 16:35 50.26098 17.52141 34998 ft 442 kts 163°
2026-04-25 16:35 50.20176 17.54347 35302 ft 449 kts 173°
2026-04-25 16:36 50.13993 17.56404 35468 ft 454 kts 173°
2026-04-25 16:36 50.07836 17.58518 35918 ft 451 kts 173°
2026-04-25 16:36 50.04774 17.59591 36138 ft 450 kts 173°
2026-04-25 16:37 50.01724 17.60667 36372 ft 449 kts 173°
2026-04-25 16:37 49.98687 17.61740 36588 ft 447 kts 173°
2026-04-25 16:37 49.95652 17.62813 36801 ft 445 kts 173°
2026-04-25 16:37 49.92631 17.63878 36939 ft 446 kts 173°
2026-04-25 16:38 49.89583 17.64947 36929 ft 450 kts 173°
2026-04-25 16:38 49.83421 17.67105 36942 ft 458 kts 173°
2026-04-25 16:39 49.77207 17.69278 36948 ft 465 kts 173°
2026-04-25 16:39 49.70852 17.71497 36941 ft 472 kts 173°
2026-04-25 16:40 49.64402 17.73743 36947 ft 478 kts 172°
2026-04-25 16:40 49.57895 17.76005 36937 ft 481 kts 172°
2026-04-25 16:41 49.51352 17.78273 36943 ft 482 kts 172°
2026-04-25 16:41 49.41556 17.81657 36939 ft 482 kts 173°
2026-04-25 16:42 49.35018 17.83906 36948 ft 481 kts 173°
2026-04-25 16:42 49.28497 17.86142 36941 ft 479 kts 173°
2026-04-25 16:43 49.22004 17.88364 36943 ft 477 kts 173°
2026-04-25 16:43 49.15537 17.90570 36936 ft 475 kts 173°
2026-04-25 16:44 49.09094 17.92763 36952 ft 473 kts 173°
2026-04-25 16:44 49.02658 17.94903 36945 ft 470 kts 176°
2026-04-25 16:45 48.96223 17.95602 36935 ft 461 kts 185°
2026-04-25 16:45 48.89817 17.95865 36937 ft 461 kts 185°
2026-04-25 16:46 48.83449 17.96166 36939 ft 461 kts 185°
2026-04-25 16:46 48.78077 17.96465 36951 ft 461 kts 184°
2026-04-25 16:47 48.70615 17.96909 36940 ft 462 kts 184°
2026-04-25 16:47 48.64185 17.97296 36934 ft 463 kts 184°
2026-04-25 16:48 48.57745 17.97682 36938 ft 463 kts 184°
2026-04-25 16:48 48.51303 17.98065 36926 ft 462 kts 184°
2026-04-25 16:49 48.44878 17.98445 36942 ft 462 kts 184°
2026-04-25 16:49 48.38449 17.98824 36939 ft 462 kts 184°
2026-04-25 16:50 48.32029 17.99202 36927 ft 462 kts 184°
2026-04-25 16:50 48.25600 17.99579 36938 ft 462 kts 184°
2026-04-25 16:51 48.19205 17.99954 36942 ft 462 kts 184°
2026-04-25 16:51 48.13807 18.00269 36949 ft 463 kts 184°
2026-04-25 16:52 48.06328 18.00705 36944 ft 463 kts 184°
2026-04-25 16:52 47.99879 18.01079 36959 ft 466 kts 184°
2026-04-25 16:53 47.90114 18.01645 36945 ft 466 kts 184°
2026-04-25 16:54 47.83668 18.02024 36955 ft 459 kts 184°
2026-04-25 16:54 47.77310 18.02393 36946 ft 455 kts 184°
2026-04-25 16:55 47.72051 18.02695 36951 ft 453 kts 184°
2026-04-25 16:55 47.64671 18.03110 36950 ft 460 kts 184°
2026-04-25 16:56 47.58242 18.03474 36962 ft 464 kts 184°
2026-04-25 16:56 47.51740 18.03845 36956 ft 468 kts 184°
2026-04-25 16:57 47.45225 18.04218 36968 ft 469 kts 184°
2026-04-25 16:57 47.38699 18.04591 36955 ft 469 kts 184°
2026-04-25 16:58 47.32222 18.04961 36955 ft 467 kts 184°
2026-04-25 16:58 47.25735 18.05328 36962 ft 466 kts 184°
2026-04-25 16:59 47.19256 18.05693 36945 ft 464 kts 184°
2026-04-25 16:59 47.12816 18.06056 36957 ft 463 kts 184°
2026-04-25 17:00 47.06389 18.06416 36963 ft 462 kts 184°
2026-04-25 17:00 46.99975 18.06775 36961 ft 461 kts 184°
2026-04-25 17:01 46.93577 18.07133 36960 ft 459 kts 184°
2026-04-25 17:01 46.87191 18.07488 36966 ft 458 kts 184°
2026-04-25 17:02 46.80817 18.07842 36966 ft 458 kts 184°
2026-04-25 17:02 46.74491 18.08192 36960 ft 458 kts 184°
2026-04-25 17:03 46.68116 18.08544 36966 ft 458 kts 184°
2026-04-25 17:03 46.61738 18.08896 36973 ft 459 kts 184°
2026-04-25 17:04 46.55344 18.09248 36945 ft 460 kts 184°
2026-04-25 17:04 46.48949 18.09599 36961 ft 461 kts 184°
2026-04-25 17:05 46.42541 18.09950 36978 ft 461 kts 184°
2026-04-25 17:05 46.32896 18.10477 36962 ft 463 kts 184°
2026-04-25 17:06 46.26462 18.10828 36980 ft 463 kts 184°
2026-04-25 17:06 46.20018 18.11178 36983 ft 463 kts 184°
2026-04-25 17:07 46.13601 18.11526 36977 ft 464 kts 183°
2026-04-25 17:07 46.07151 18.11875 36988 ft 464 kts 183°
2026-04-25 17:08 46.00698 18.12224 36992 ft 464 kts 183°
2026-04-25 17:08 45.94252 18.12571 36992 ft 464 kts 183°
2026-04-25 17:09 45.87796 18.12918 36985 ft 463 kts 183°
2026-04-25 17:09 45.81351 18.13263 36989 ft 463 kts 183°
2026-04-25 17:10 45.74949 18.14088 36993 ft 467 kts 176°
2026-04-25 17:10 45.68521 18.15688 36971 ft 468 kts 174°
2026-04-25 17:11 45.62099 18.17343 36978 ft 468 kts 175°
2026-04-25 17:11 45.55681 18.18927 36977 ft 468 kts 175°
2026-04-25 17:12 45.49287 18.20457 36962 ft 468 kts 175°
2026-04-25 17:12 45.42855 18.21980 36976 ft 468 kts 175°
2026-04-25 17:13 45.38556 18.22996 36983 ft 468 kts 175°
2026-04-25 17:13 45.29993 18.25018 36983 ft 468 kts 175°
2026-04-25 17:14 45.23558 18.26535 36982 ft 469 kts 175°
2026-04-25 17:14 45.17151 18.28042 36984 ft 469 kts 175°
2026-04-25 17:15 45.10702 18.29556 36985 ft 470 kts 175°
2026-04-25 17:15 45.04249 18.31067 36980 ft 470 kts 175°
2026-04-25 17:16 44.97799 18.32575 36985 ft 470 kts 175°
2026-04-25 17:16 44.91349 18.34078 36988 ft 470 kts 175°
2026-04-25 17:17 44.84921 18.35572 36982 ft 470 kts 174°
2026-04-25 17:17 44.78424 18.37080 36987 ft 470 kts 174°
2026-04-25 17:18 44.73050 18.38325 36986 ft 470 kts 174°
2026-04-25 17:18 44.65543 18.40059 36980 ft 470 kts 174°
2026-04-25 17:19 44.60126 18.41308 36986 ft 470 kts 174°
2026-04-25 17:19 44.53696 18.42787 36992 ft 470 kts 174°
2026-04-25 17:20 44.47238 18.44269 36994 ft 470 kts 174°
2026-04-25 17:20 44.40784 18.45747 36990 ft 470 kts 174°
2026-04-25 17:21 44.34329 18.47221 36996 ft 470 kts 174°
2026-04-25 17:21 44.27868 18.48694 36991 ft 470 kts 174°
2026-04-25 17:22 44.22510 18.49916 36981 ft 469 kts 174°
2026-04-25 17:22 44.15019 18.51620 36992 ft 469 kts 174°
2026-04-25 17:23 44.08580 18.53074 36990 ft 469 kts 174°
2026-04-25 17:23 44.02150 18.54526 36996 ft 468 kts 173°
2026-04-25 17:24 43.95721 18.55975 36993 ft 468 kts 173°
2026-04-25 17:24 43.89298 18.57420 36998 ft 467 kts 173°
2026-04-25 17:25 43.82883 18.58861 36998 ft 467 kts 173°
2026-04-25 17:25 43.76472 18.60296 36995 ft 467 kts 173°
2026-04-25 17:26 43.70055 18.61731 37005 ft 466 kts 173°
2026-04-25 17:26 43.63645 18.63160 36998 ft 466 kts 173°
2026-04-25 17:27 43.57235 18.64587 36997 ft 466 kts 173°
2026-04-25 17:27 43.51916 18.65768 37008 ft 466 kts 173°
2026-04-25 17:28 43.44462 18.67420 37001 ft 467 kts 172°
2026-04-25 17:28 43.38049 18.68838 36998 ft 467 kts 172°
2026-04-25 17:29 43.31639 18.70253 37013 ft 467 kts 172°
2026-04-25 17:29 43.25213 18.71668 36993 ft 467 kts 172°
2026-04-25 17:30 43.18790 18.73079 37004 ft 467 kts 172°
2026-04-25 17:30 43.12363 18.74488 37004 ft 467 kts 172°
2026-04-25 17:31 43.05976 18.75886 36993 ft 468 kts 172°
2026-04-25 17:31 42.99550 18.77289 36999 ft 467 kts 172°
2026-04-25 17:32 42.93128 18.78688 36999 ft 467 kts 172°
2026-04-25 17:32 42.86710 18.80083 37008 ft 466 kts 172°
2026-04-25 17:33 42.80295 18.81474 37006 ft 466 kts 172°
2026-04-25 17:33 42.73886 18.82862 37005 ft 466 kts 172°
2026-04-25 17:34 42.67490 18.84243 37016 ft 465 kts 172°
2026-04-25 17:34 42.61135 18.85613 37005 ft 465 kts 172°
2026-04-25 17:35 42.54745 18.86988 37004 ft 465 kts 172°
2026-04-25 17:35 42.48357 18.88359 37008 ft 465 kts 172°
2026-04-25 17:36 42.41963 18.89729 37004 ft 465 kts 171°
2026-04-25 17:36 42.35572 18.91096 37003 ft 465 kts 171°
2026-04-25 17:37 42.29177 18.92460 37007 ft 465 kts 171°
2026-04-25 17:37 42.22786 18.93821 37011 ft 465 kts 171°
2026-04-25 17:38 42.17472 18.94950 37018 ft 465 kts 171°
2026-04-25 17:38 42.10040 18.96527 37021 ft 465 kts 171°
2026-04-25 17:39 42.03646 18.97880 37021 ft 465 kts 171°
2026-04-25 17:39 41.97255 18.99229 37019 ft 465 kts 171°
2026-04-25 17:40 41.90868 19.00576 37022 ft 465 kts 171°
2026-04-25 17:40 41.84471 19.01922 37022 ft 465 kts 171°
2026-04-25 17:41 41.78085 19.03262 37023 ft 464 kts 171°
2026-04-25 17:41 41.71698 19.04600 37022 ft 464 kts 171°
2026-04-25 17:42 41.65307 19.05937 37025 ft 464 kts 171°
2026-04-25 17:42 41.58924 19.07269 37026 ft 464 kts 170°
2026-04-25 17:43 41.52596 19.08587 37022 ft 463 kts 170°
2026-04-25 17:43 41.46221 19.09947 37025 ft 462 kts 167°
2026-04-25 17:44 41.40125 19.12605 37040 ft 460 kts 158°
2026-04-25 17:44 41.34137 19.15631 37029 ft 460 kts 158°
2026-04-25 17:45 41.30117 19.17640 37027 ft 461 kts 158°
2026-04-25 17:45 41.22079 19.21582 37024 ft 463 kts 158°
2026-04-25 17:46 41.16035 19.24516 37017 ft 462 kts 158°
2026-04-25 17:46 41.10010 19.27434 37019 ft 460 kts 158°
2026-04-25 17:47 41.04009 19.30338 37015 ft 459 kts 158°
2026-04-25 17:47 40.98013 19.33234 36925 ft 461 kts 158°
2026-04-25 17:48 40.91927 19.36170 36393 ft 467 kts 158°
2026-04-25 17:48 40.88920 19.37617 36138 ft 464 kts 158°
2026-04-25 17:48 40.85896 19.39070 35876 ft 461 kts 158°
2026-04-25 17:49 40.82879 19.40520 35625 ft 462 kts 158°
2026-04-25 17:49 40.79849 19.41974 35389 ft 463 kts 158°
2026-04-25 17:49 40.76820 19.43427 34943 ft 465 kts 158°
2026-04-25 17:49 40.73760 19.44894 34298 ft 467 kts 158°
2026-04-25 17:50 40.71743 19.45859 33855 ft 466 kts 158°
2026-04-25 17:50 40.67651 19.47816 32857 ft 467 kts 157°
2026-04-25 17:50 40.64591 19.49279 32131 ft 468 kts 158°
2026-04-25 17:50 40.61527 19.50741 31400 ft 468 kts 158°
2026-04-25 17:51 40.58459 19.52204 30650 ft 469 kts 158°
2026-04-25 17:51 40.55427 19.53648 29899 ft 470 kts 158°
2026-04-25 17:51 40.52351 19.55108 29044 ft 470 kts 158°
2026-04-25 17:51 40.49230 19.56586 28172 ft 470 kts 158°
2026-04-25 17:52 40.46204 19.58018 27555 ft 466 kts 158°
2026-04-25 17:52 40.45176 19.58504 27337 ft 464 kts 158°
2026-04-25 17:52 40.40158 19.60875 26292 ft 458 kts 158°
2026-04-25 17:52 40.37168 19.62287 25692 ft 455 kts 158°
2026-04-25 17:53 40.34200 19.63687 25093 ft 451 kts 159°
2026-04-25 17:53 40.31253 19.65078 24491 ft 449 kts 159°
2026-04-25 17:53 40.28322 19.66459 23876 ft 447 kts 159°
2026-04-25 17:53 40.25399 19.67835 23215 ft 445 kts 159°
2026-04-25 17:54 40.22489 19.69203 22562 ft 442 kts 159°
2026-04-25 17:54 40.19600 19.70560 21944 ft 439 kts 159°
2026-04-25 17:54 40.16739 19.71903 21339 ft 435 kts 158°
2026-04-25 17:54 40.13901 19.73234 20753 ft 432 kts 159°
2026-04-25 17:55 40.11081 19.74555 20167 ft 429 kts 159°
2026-04-25 17:55 40.08281 19.75866 19585 ft 426 kts 159°
2026-04-25 17:55 40.05501 19.77166 19005 ft 424 kts 159°
2026-04-25 17:55 40.02735 19.78459 18419 ft 421 kts 158°
2026-04-25 17:56 39.99981 19.79746 17770 ft 419 kts 158°
2026-04-25 17:56 39.97282 19.81006 17163 ft 416 kts 158°
2026-04-25 17:56 39.94565 19.82273 16571 ft 412 kts 158°
2026-04-25 17:56 39.91869 19.83528 15997 ft 409 kts 158°
2026-04-25 17:57 39.89185 19.84714 15405 ft 407 kts 163°
2026-04-25 17:57 39.86414 19.85496 14767 ft 407 kts 169°
2026-04-25 17:57 39.83624 19.86060 14197 ft 405 kts 171°
2026-04-25 17:57 39.82685 19.86235 13998 ft 404 kts 171°
2026-04-25 17:58 39.78075 19.87119 12993 ft 399 kts 170°
2026-04-25 17:58 39.75348 19.87685 12422 ft 395 kts 169°
2026-04-25 17:58 39.72646 19.88271 11852 ft 392 kts 169°
2026-04-25 17:58 39.69975 19.88863 11316 ft 388 kts 169°
2026-04-25 17:59 39.67340 19.89451 11016 ft 378 kts 169°
2026-04-25 17:59 39.64792 19.90018 10844 ft 364 kts 169°
2026-04-25 17:59 39.62335 19.90564 10694 ft 352 kts 169°
2026-04-25 17:59 39.59936 19.90794 10518 ft 342 kts 187°
2026-04-25 18:00 39.57680 19.90172 10412 ft 331 kts 193°
2026-04-25 18:00 39.55441 19.89468 10261 ft 322 kts 193°
2026-04-25 18:00 39.53290 19.88793 10119 ft 313 kts 193°
2026-04-25 18:00 39.51264 19.88170 9993 ft 305 kts 193°
2026-04-25 18:01 39.49198 19.87545 9940 ft 293 kts 193°
2026-04-25 18:01 39.47191 19.86943 9489 ft 298 kts 193°
2026-04-25 18:01 39.45180 19.86342 9186 ft 296 kts 192°
2026-04-25 18:01 39.43180 19.85747 8889 ft 294 kts 192°
2026-04-25 18:02 39.41269 19.84854 8577 ft 293 kts 207°
2026-04-25 18:02 39.39501 19.83567 8308 ft 290 kts 210°
2026-04-25 18:02 39.37772 19.82228 8028 ft 288 kts 210°
2026-04-25 18:02 39.36161 19.80727 7806 ft 285 kts 226°
2026-04-25 18:03 39.34879 19.78809 7644 ft 278 kts 230°
2026-04-25 18:03 39.33648 19.76937 7559 ft 268 kts 230°
2026-04-25 18:03 39.32432 19.75099 7338 ft 272 kts 229°
2026-04-25 18:03 39.31428 19.73089 7262 ft 263 kts 252°
2026-04-25 18:04 39.31209 19.70758 7045 ft 266 kts 274°
2026-04-25 18:04 39.31370 19.68341 6828 ft 274 kts 277°
2026-04-25 18:04 39.31686 19.65902 6583 ft 278 kts 291°
2026-04-25 18:04 39.32708 19.63859 6329 ft 275 kts 319°
2026-04-25 18:05 39.34217 19.62392 6096 ft 269 kts 327°
2026-04-25 18:05 39.35765 19.61060 5841 ft 266 kts 329°
2026-04-25 18:05 39.37470 19.60240 5564 ft 261 kts 355°
2026-04-25 18:05 39.39237 19.60575 5309 ft 257 kts 25°
2026-04-25 18:06 39.40630 19.61977 5064 ft 256 kts 54°
2026-04-25 18:06 39.41307 19.64081 4820 ft 257 kts 83°
2026-04-25 18:06 39.41268 19.65605 4650 ft 257 kts 103°
2026-04-25 18:06 39.40482 19.67666 4402 ft 259 kts 130°
2026-04-25 18:07 39.39278 19.69388 4157 ft 259 kts 131°
2026-04-25 18:07 39.38071 19.71124 3910 ft 260 kts 129°
2026-04-25 18:07 39.37078 19.73084 3668 ft 261 kts 118°
2026-04-25 18:07 39.36193 19.75138 3420 ft 263 kts 118°
2026-04-25 18:08 39.35258 19.77181 3169 ft 265 kts 121°
2026-04-25 18:08 39.34230 19.79166 2988 ft 266 kts 125°
2026-04-25 18:08 39.33045 19.80973 2929 ft 262 kts 137°
2026-04-25 18:08 39.31505 19.82123 2926 ft 255 kts 168°
2026-04-25 18:09 39.29762 19.82392 2938 ft 254 kts 169°
2026-04-25 18:09 39.28229 19.83509 2932 ft 260 kts 129°
2026-04-25 18:09 39.27476 19.85632 2958 ft 264 kts 101°
2026-04-25 18:09 39.27245 19.87178 2931 ft 266 kts 97°
2026-04-25 18:10 39.27157 19.90308 2930 ft 261 kts 86°
2026-04-25 18:10 39.27269 19.92637 2926 ft 258 kts 84°
2026-04-25 18:10 39.27420 19.94942 2930 ft 257 kts 82°
2026-04-25 18:10 39.27696 19.97210 2915 ft 256 kts 66°
2026-04-25 18:11 39.28770 19.98948 2956 ft 250 kts 30°
2026-04-25 18:11 39.30389 19.99639 2941 ft 244 kts
2026-04-25 18:11 39.32035 19.99421 2937 ft 232 kts 347°
2026-04-25 18:11 39.33577 19.98983 2904 ft 221 kts 345°
2026-04-25 18:12 39.35035 19.98555 2897 ft 208 kts 345°
2026-04-25 18:12 39.36405 19.98152 2892 ft 196 kts 349°
2026-04-25 18:12 39.37736 19.98051 2932 ft 191 kts 356°
2026-04-25 18:12 39.39071 19.97993 2919 ft 193 kts 356°
2026-04-25 18:13 39.40415 19.97920 2925 ft 194 kts 356°
2026-04-25 18:13 39.41765 19.97845 2892 ft 193 kts 354°
2026-04-25 18:13 39.43025 19.97505 2900 ft 183 kts 341°
2026-04-25 18:14 39.45467 19.96619 2824 ft 186 kts 343°
2026-04-25 18:14 39.46728 19.96158 2574 ft 188 kts 343°
2026-04-25 18:14 39.47973 19.95696 2326 ft 184 kts 343°
2026-04-25 18:14 39.49195 19.95239 2078 ft 181 kts 343°
2026-04-25 18:15 39.50394 19.94790 1849 ft 177 kts 343°
2026-04-25 18:15 39.51567 19.94351 1608 ft 172 kts 343°
2026-04-25 18:15 39.52686 19.93928 1349 ft 165 kts 343°
2026-04-25 18:15 39.53799 19.93458 953 ft 174 kts 341°
2026-04-25 18:16 39.54928 19.92941 720 ft 171 kts 340°
2026-04-25 18:16 39.56049 19.92477 513 ft 165 kts 338°
2026-04-25 18:16 39.58145 19.91738 283 ft 149 kts 345°
2026-04-25 18:17 39.59162 19.91462 68 ft 150 kts 347°
2026-04-25 18:17 39.60134 19.91224 9 ft 131 kts 348°
2026-04-25 18:17 39.60910 19.91025 9 ft 88 kts 349°
2026-04-25 18:17 39.61182 19.90961 9 ft 6 kts 16°
2026-04-25 18:18 39.61219 19.91002 11 ft 7 kts 65°
2026-04-25 18:18 39.61210 19.91065 9 ft 7 kts 124°
2026-04-25 18:18 39.61166 19.91096 9 ft 7 kts 168°
2026-04-25 18:18 39.61116 19.91109 9 ft 7 kts 169°
2026-04-25 18:19 39.61068 19.91121 9 ft 7 kts 168°
2026-04-25 18:19 39.61021 19.91133 8 ft 7 kts 168°
2026-04-25 18:19 39.60975 19.91146 8 ft 7 kts 168°
2026-04-25 18:19 39.60930 19.91158 8 ft 7 kts 169°
2026-04-25 18:20 39.60887 19.91174 8 ft 6 kts 141°
2026-04-25 18:20 39.60882 19.91193 8 ft 1 kts 97°
2026-04-25 18:20 39.60881 19.91204 8 ft 2 kts 91°
2026-04-25 18:20 39.60884 19.91234 8 ft 5 kts 79°
2026-04-25 18:21 39.60892 19.91285 8 ft 6 kts 80°
2026-04-25 18:21 39.60892 19.91292 8 ft 1 kts 80°